CAPE
474 493 404 482 420 428 444 495 504 436 510 481 512 548 516 490 522 526 472 480 472 502 506 1104 1789 1802 1211 730 931 942 870 1317 1254 1230 1161 1246 1181 1288 1166 780 685 648
389 342 359 370 410 471 448 358 330 353 476 611 652 620 573 596 552 518 562 568 506 428 452 687 842 946 1217 609 559 608 764 961 1150 931 849 839 1051 1164 1123 844 930 1039
520 301 343 394 342 304 266 241 210 260 410 458 518 534 539 433 505 577 672 581 546 474 528 752 774 754 732 798 868 879 710 995 1201 1026 802 688 1009 1100 962 762 990 790
572 547 414 350 317 312 382 239 231 347 484 542 434 426 413 541 578 637 560 544 570 568 735 820 766 912 1019 1172 1238 1260 940 1002 878 888 871 966 1158 1032 1006 1034 1054 1004
653 568 562 477 413 391 294 287 280 318 370 418 398 385 386 443 536 491 456 460 482 449 478 232 363 500 611 599 924 1042 933 766 695 874 1022 987 1036 812 686 566 680 784
632 525 501 480 445 399 338 264 252 310 388 318 361 292 244 260 338 429 486 539 462 269 292 248 340 401 388 562 787 1029 1132 1076 818 950 1152 1172 1035 914 608 425 372 468
745 617 610 654 572 488 464 363 378 330 340 373 368 362 292 230 232 323 479 537 596 716 636 702 721 769 858 1070 1118 1064 1173 1142 1088 1046 1128 1117 1020 963 740 406 528 706
902 679 530 567 553 466 308 315 292 228 280 434 331 304 189 155 224 259 286 526 696 893 936 966 990 1034 847 810 852 1102 1249 898 790 1053 1108 1059 978 848 521 426 390 401
552 476 518 430 380 361 180 144 107 49 28 94 204 192 198 173 182 247 400 594 820 1001 1044 1086 1121 1172 842 750 826 1070 1351 1151 982 1066 1048 979 886 588 424 421 404 384
470 535 436 342 182 176 103 26 0 3 25 13 54 16 24 115 197 277 346 408 630 1007 1088 1384 1383 1470 1515 954 797 1072 1297 1387 1264 1124 962 871 748 614 451 423 431 484
474 428 416 423 280 54 4 0 0 0 0 0 0 9 28 36 19 46 115 290 739 1060 1100 1215 1380 1247 956 925 1151 1278 1337 1286 1373 1158 962 903 756 580 456 331 459 683
483 462 329 257 138 32 0 3 0 4 1 8 12 6 0 0 0 0 17 194 476 1134 1656 1606 1570 1522 1957 1929 1750 1318 1162 1237 1235 1088 960 975 783 439 370 430 617 583
278 400 442 210 139 128 131 72 50 29 29 12 0 0 0 0 0 6 11 96 316 828 932 974 1304 1236 1528 1849 1843 1798 1686 1575 1452 1232 1186 884 628 540 476 548 604 476
212 236 310 255 181 222 252 221 159 197 242 181 87 29 0 0 0 4 20 88 268 314 446 776 946 1150 1482 1510 1574 1737 1618 1356 1333 1125 1010 668 678 616 550 477 496 321
339 359 287 220 192 298 308 299 307 266 248 181 76 18 1 0 6 21 98 182 277 384 685 811 1230 1267 1374 1582 1640 1711 1210 722 736 828 832 791 784 788 740 676 384 272
604 516 372 349 338 324 373 350 302 309 214 125 60 7 13 46 135 173 154 141 232 392 738 947 1260 1258 1081 985 1184 1597 1161 893 827 842 814 895 897 963 992 633 390 326
654 624 590 516 521 472 456 457 458 430 311 166 65 46 123 168 195 149 106 168 332 532 783 914 908 1046 530 868 1028 1200 1116 1056 877 872 802 686 772 1035 1190 938 499 329
569 579 588 604 619 658 610 539 499 402 305 180 93 81 147 120 170 188 255 326 522 766 846 858 924 995 727 969 1109 1152 984 1113 908 804 656 625 698 806 1104 1147 799 572
673 619 658 646 741 789 734 617 552 415 266 140 71 54 102 212 226 242 313 498 552 710 725 735 822 558 800 919 1020 1024 1025 872 978 968 739 620 659 928 954 943 951 848
700 724 730 794 858 838 765 722 625 493 259 104 55 86 186 246 222 211 216 238 301 454 488 550 634 736 652 769 904 1050 1057 908 1122 1031 894 952 958 756 752 1232 1114 995
724 812 866 894 982 940 884 816 735 507 263 147 98 111 220 419 276 183 180 192 184 197 320 403 643 387 503 670 822 920 999 807 1108 1088 962 1194 962 948 763 856 1083 1016
829 920 1030 1032 1078 1009 972 965 796 534 370 326 218 204 313 310 280 192 92 156 246 295 428 508 584 560 512 441 642 819 834 913 1224 1240 1126 1218 1142 779 750 1334 1187 1204
930 984 1117 1192 1174 1172 1296 1147 833 570 374 320 279 290 380 317 242 144 174 178 437 466 388 655 783 770 472 489 583 713 608 1276 1167 1301 1173 832 831 1035 1033 1266 1391 1322
1014 1064 1097 1110 1138 1151 1155 1058 751 574 368 284 230 254 261 394 305 292 468 458 396 505 506 453 303 291 332 402 611 670 796 1368 1178 1244 1055 1102 718 637 796 1356 1426 1028
1008 1090 1084 960 1048 1076 988 845 678 575 404 350 334 420 512 474 347 342 375 421 292 383 198 186 466 659 534 475 511 672 716 1485 1434 1388 1134 802 442 536 583 534 512 868
1118 1170 1149 983 926 886 897 889 756 531 450 544 459 303 259 259 260 190 256 450 577 468 362 326 654 569 1306 954 493 537 20 604 1308 1133 824 558 549 522 539 431 376 547
Wind_Speed
30 31 30 29 28 29 29 29 29 27 27 27 28 29 30 32 33 34 35 35 36 36 38 39 41 41 39 37 34 34 34 33 31 30 28 29 29 27 27 28 27 28
31 32 32 30 30 30 30 31 30 29 28 29 30 30 32 33 34 35 36 36 36 36 37 39 40 40 38 36 34 34 35 34 31 31 28 26 28 28 27 27 27 30
32 32 33 31 31 30 30 31 31 30 30 30 30 32 33 35 35 37 37 37 37 37 37 38 39 40 38 37 35 34 34 34 32 30 29 27 28 29 30 27 28 26
33 34 33 32 32 32 33 32 32 32 31 32 33 34 34 36 37 37 38 38 39 38 38 38 39 39 39 37 35 34 34 34 34 33 31 28 28 28 29 29 28 26
33 34 34 34 33 33 33 33 33 32 32 32 33 34 36 37 38 39 39 40 40 40 41 40 40 40 40 38 36 34 34 35 35 35 33 30 28 28 30 31 29 27
33 34 35 34 35 35 34 34 33 33 32 32 34 35 36 37 38 39 40 40 41 41 40 41 41 41 40 39 36 35 34 35 34 34 33 32 30 28 29 31 30 29
33 35 35 35 36 36 35 34 34 34 34 34 35 35 36 38 39 40 40 42 42 42 41 42 43 42 42 40 37 35 35 34 32 32 33 33 32 29 29 30 31 31
34 35 36 37 36 36 35 35 35 35 36 37 36 36 37 38 40 41 42 42 41 42 42 43 43 43 41 40 36 35 34 34 31 30 30 30 31 30 29 31 32 33
34 35 37 37 37 36 36 37 36 nan nan nan 38 38 40 41 41 42 42 42 41 42 43 44 44 43 42 39 36 34 33 31 30 28 28 28 29 29 29 30 30 33
36 37 37 36 37 38 38 nan nan nan nan nan nan nan nan 41 43 44 44 43 42 42 44 44 43 41 40 38 36 34 32 30 28 27 26 26 26 28 28 28 29 32
37 37 38 39 38 nan nan nan nan nan nan nan nan nan nan nan nan nan 46 44 43 43 43 43 40 39 38 36 36 34 31 29 28 26 24 24 24 26 27 27 28 30
38 37 38 38 37 nan nan nan nan nan nan nan nan nan nan nan nan nan nan 44 43 43 43 39 37 38 38 35 33 31 29 28 27 25 23 22 22 24 26 28 28 30
38 39 39 39 40 40 41 nan nan nan nan nan nan nan nan nan nan nan nan nan 44 44 44 40 38 36 36 34 31 30 28 27 26 24 23 22 21 22 24 26 28 30
38 39 41 41 41 41 42 41 40 39 39 39 nan nan nan nan nan nan nan nan 43 42 41 38 36 35 35 33 31 29 27 26 25 23 21 19 20 21 23 25 27 28
40 41 43 43 43 44 43 42 40 39 39 40 nan nan nan nan nan nan nan 42 42 42 40 38 37 35 35 33 30 27 26 23 22 21 20 18 19 20 23 24 25 28
43 44 44 44 44 44 43 42 40 39 39 39 nan nan nan nan 42 42 42 43 41 40 38 36 35 35 38 31 29 27 23 23 21 20 19 19 18 19 22 23 25 27
44 45 45 45 45 45 44 43 41 40 40 40 nan nan 41 42 43 42 41 41 39 37 36 34 33 36 43 37 34 30 27 22 21 19 19 18 18 19 22 23 24 25
45 46 46 45 46 46 45 44 42 41 40 41 nan nan 42 42 41 41 40 40 39 37 34 31 29 39 42 37 34 33 30 25 22 20 19 19 18 19 22 24 23 25
46 46 46 47 47 47 46 45 44 42 41 42 nan nan 41 41 41 41 41 39 37 34 32 29 27 37 39 37 33 32 31 27 23 21 19 18 17 18 21 24 25 27
48 47 47 47 47 47 46 45 43 42 41 42 nan nan 41 41 40 39 38 37 35 33 31 28 27 34 38 35 32 31 30 29 23 20 18 19 20 18 19 23 25 27
49 49 48 47 47 46 45 43 42 41 41 41 nan 40 40 40 40 38 37 35 32 30 29 28 27 37 37 34 32 31 30 29 23 21 19 21 23 21 21 23 25 27
49 49 48 46 45 44 43 42 41 41 41 42 41 40 40 40 39 37 nan 33 30 29 28 27 26 38 34 32 30 30 31 26 23 21 20 19 21 22 21 23 25 27
50 50 48 45 44 43 42 41 41 41 41 42 41 40 40 39 36 34 33 31 28 28 28 26 23 30 32 30 29 29 29 24 21 20 18 16 15 18 19 21 25 28
50 50 48 45 44 42 41 41 40 41 40 41 39 38 38 36 34 33 32 29 26 26 27 23 21 19 26 28 28 30 25 21 20 20 19 18 17 17 20 22 23 27
49 49 48 45 44 42 41 40 40 39 40 39 38 39 38 35 33 32 29 26 25 23 25 23 22 24 22 26 27 27 24 22 20 21 20 18 16 17 19 21 22 25
47 48 48 45 43 42 41 40 40 39 39 39 39 38 35 33 32 31 27 24 27 25 23 20 22 25 26 31 31 28 nan 21 20 20 19 17 17 17 18 21 22 25
Wind_Direction
325 323 322 319 317 316 317 318 316 314 312 312 312 311 312 313 315 317 319 321 323 326 324 323 320 317 314 309 306 304 301 299 295 290 284 282 282 281 278 277 274 270
324 323 322 320 319 320 319 319 317 314 313 312 312 312 312 314 316 317 317 320 322 323 323 321 318 315 311 308 305 300 298 295 293 287 281 275 275 279 278 269 266 273
323 322 323 323 320 316 316 317 317 315 313 309 308 311 313 314 315 315 317 319 321 322 322 321 318 314 311 309 306 302 297 294 292 286 279 275 275 277 278 281 283 276
321 322 321 320 319 318 317 317 317 316 313 311 308 308 310 312 314 316 318 319 321 323 321 320 317 312 309 307 304 301 295 292 288 284 285 285 279 276 279 284 286 278
318 319 319 319 317 316 318 319 319 316 313 310 310 311 312 313 315 316 318 320 322 323 323 321 317 312 309 307 304 301 295 289 285 283 283 282 281 277 276 277 275 270
316 317 318 318 319 319 320 320 318 317 314 313 310 310 311 312 316 317 319 322 323 322 322 320 317 313 308 307 304 301 294 288 282 282 284 283 280 279 277 274 271 268
316 317 318 318 320 321 322 322 320 319 318 314 312 314 315 316 317 319 321 324 324 323 321 319 317 313 310 307 305 300 295 289 284 282 282 283 283 281 277 273 270 267
316 316 316 317 318 320 322 323 321 321 322 320 319 317 317 317 318 320 323 324 324 323 321 320 317 314 311 308 305 300 297 291 286 282 280 281 282 279 276 274 269 266
315 316 316 318 320 321 325 325 325 nan nan nan 320 320 319 320 321 323 324 326 325 324 322 320 318 316 312 309 305 302 300 295 290 286 282 280 280 277 274 271 268 266
315 315 316 318 321 322 325 nan nan nan nan nan nan nan nan 322 324 325 325 326 326 325 324 321 319 317 314 309 307 306 304 300 294 288 285 283 281 279 276 273 269 266
315 315 317 320 322 nan nan nan nan nan nan nan nan nan nan nan nan nan 324 325 326 325 323 322 321 318 316 312 310 308 306 301 296 291 288 287 284 282 281 278 274 271
315 316 318 319 321 nan nan nan nan nan nan nan nan nan nan nan nan nan nan 324 325 324 320 319 320 319 315 311 309 307 305 301 298 295 293 292 289 286 285 284 281 278
314 316 318 320 322 324 324 nan nan nan nan nan nan nan nan nan nan nan nan nan 325 324 324 324 320 317 313 309 310 310 308 304 301 298 298 295 292 291 289 287 286 284
315 316 319 321 323 324 324 324 321 319 319 320 nan nan nan nan nan nan nan nan 322 321 321 322 320 317 312 311 312 313 308 305 301 299 301 298 297 296 294 291 290 288
315 316 319 322 324 325 324 322 320 320 321 323 nan nan nan nan nan nan nan 323 324 324 323 323 322 319 313 310 312 311 307 306 306 304 304 304 301 298 297 296 295 292
316 318 320 322 323 323 321 321 321 321 321 322 nan nan nan nan 323 323 326 327 326 324 323 322 320 314 305 313 313 317 313 309 310 310 309 308 306 303 305 304 300 296
316 319 322 323 322 321 321 322 322 323 323 323 nan nan 325 325 325 325 325 325 325 324 323 320 317 317 322 329 330 327 321 319 318 317 315 311 309 310 309 309 307 303
318 321 322 322 321 321 321 322 322 323 323 324 nan nan 325 323 323 323 325 326 325 324 321 319 319 317 326 328 331 328 326 324 322 320 318 314 311 314 316 314 309 306
319 321 323 322 321 322 322 322 322 322 323 324 nan nan 322 322 324 326 326 325 325 323 321 320 322 322 327 329 331 331 331 331 326 327 324 317 313 316 318 315 311 311
321 322 323 322 322 322 322 321 321 322 323 323 nan nan 323 322 323 325 325 326 326 324 322 322 322 322 329 329 332 334 337 333 333 332 326 314 308 314 317 317 316 316
321 322 322 321 321 321 321 322 321 322 323 322 nan 321 321 321 321 324 327 327 325 321 319 317 317 317 327 330 333 338 339 336 335 333 327 323 325 326 325 327 320 320
320 320 320 320 321 320 321 322 321 322 322 321 321 322 321 322 325 326 nan 328 324 322 321 319 317 319 327 329 333 337 333 335 338 335 332 326 327 329 331 323 323 325
319 318 318 320 320 320 321 322 322 321 321 320 321 321 323 323 325 327 326 327 325 321 320 319 322 320 326 328 330 329 328 335 335 327 322 323 323 319 320 327 328 329
317 317 318 319 319 320 322 322 322 321 320 319 321 321 323 323 324 327 328 323 321 324 310 307 307 301 319 324 325 327 331 330 326 322 325 328 332 324 325 329 332 335
316 316 318 319 320 321 321 321 321 320 319 319 320 323 323 324 326 325 323 319 310 309 314 315 310 301 317 315 315 317 325 324 323 323 326 329 326 328 330 332 335 334
315 316 317 318 320 321 320 320 319 320 322 322 323 321 320 319 318 321 321 317 311 317 319 318 310 304 316 316 313 317 nan 317 318 322 324 326 327 330 336 339 339 339